Regional Weather Roundup
Issued by NWS

Home | Current Version | Previous Version | Graphics & Text | Print | Product List | Glossary On
Versions: 1 2 3 4 5 6 7 8 9 10 11 12 13 14 15 16 17 18 19 20 21 22 23 24 25 26 27 28 29 30 31 32 33 34 35 36 37 38 39 40 41 42 43 44 45 46 47 48 49 50
000
ASUS43 KLMK 301810
RWRKY
KENTUCKY REGIONAL WEATHER ROUNDUP
NATIONAL WEATHER SERVICE LOUISVILLE KY
200 PM EDT SAT JUL 30 2016

NOTE "FAIR" INDICATES FEW OR NO CLOUDS BELOW 12,000 FEET
WITH NO SIGNIFICANT WEATHER AND/OR OBSTRUCTIONS TO VISIBILITY.

KYZ001>023-026-027-061>063-070>075-301900-
WESTERN AND SOUTH CENTRAL KENTUCKY

CITY           SKY/WX    TMP DP  RH WIND       PRES   REMARKS
PADUCAH        CLOUDY    80  71  74 W5        30.00F
HENDERSON      PTSUNNY   84  70  61 W5        29.97F
OWENSBORO      PTSUNNY   84  74  72 W8        29.99F HX  91
HOPKINSVILLE   MOSUNNY   85  72  65 W6        30.00F HX  90
BOWLING GREEN  PTSUNNY   84  72  67 SW5       30.00F
GLASGOW        CLOUDY    79  71  74 SW5       30.01F
$$

KYZ024-025-028>034-038-045-046-053-301900-
NORTH CENTRAL KENTUCKY

CITY           SKY/WX    TMP DP  RH WIND       PRES   REMARKS
LOUISVILLE/SDF PTSUNNY   84  68  58 SW7       29.96F
LOUISVILLE/LOU MOSUNNY   86  69  56 SW8       29.97F HX  90
FORT KNOX      PTSUNNY   83  71  65 SW9       29.97F
$$

KYZ035>037-039>044-047>052-055>060-089>105-301900-
NORTHEAST KENTUCKY

CITY           SKY/WX    TMP DP  RH WIND       PRES   REMARKS
LEXINGTON      PTSUNNY   84  69  60 VRB3      30.01F
COVINGTON      PTSUNNY   84  69  60 SW8       29.98F
FRANKFORT      PTSUNNY   85  70  60 SW8       29.99F
$$

KYZ054-064>069-076>088-106>120-301900-
SOUTHEAST KENTUCKY

CITY           SKY/WX    TMP DP  RH WIND       PRES   REMARKS
JACKSON        PTSUNNY   82  71  69 CALM      30.03F
LONDON         PTSUNNY   82  66  58 SW8       30.03F
SOMERSET       MOSUNNY   81  70  69 SW7       30.04F
MIDDLESBORO    PTSUNNY   84  73  68 S6        30.03F HX  90
MONTICELLO     MOCLDY   N/A N/A N/A W16       30.05F
$$




USA.gov is the U.S. government's official web portal to all federal, state and local government web resources and services.